TimeCDT,TemperatureF,Dew PointF,Humidity,Sea Level PressureIn,VisibilityMPH,Wind Direction,Wind SpeedMPH,Gust SpeedMPH,PrecipitationIn,Events,Conditions,WindDirDegrees,DateUTC
12:15 AM,65.1,63.5,94,29.71,10.0,Calm,Calm,-,0.01,Rain-Thunderstorm,Light Thunderstorms and Rain,0,2013-05-19 05:15:00
12:35 AM,65.3,64.0,96,29.79,7.0,SSE,10.4,-,0.05,Rain-Thunderstorm,Thunderstorms and Rain,150,2013-05-19 05:35:00
12:55 AM,65.1,62.4,91,29.69,10.0,West,8.1,-,0.07,Rain-Thunderstorm,Light Thunderstorms and Rain,280,2013-05-19 05:55:00
1:15 AM,66.0,62.6,89,29.72,10.0,East,9.2,-,N/A,Rain-Thunderstorm,Thunderstorms and Rain,100,2013-05-19 06:15:00
1:35 AM,65.8,62.4,89,29.74,10.0,SSW,4.6,23.0,0.02,Rain-Thunderstorm,Thunderstorms and Rain,200,2013-05-19 06:35:00
1:55 AM,64.6,63.3,96,29.75,10.0,South,5.8,-,0.06,Rain-Thunderstorm,Thunderstorms and Rain,180,2013-05-19 06:55:00
2:15 AM,64.6,63.0,94,29.75,10.0,SSE,10.4,-,0.03,Rain-Thunderstorm,Light Thunderstorms and Rain,150,2013-05-19 07:15:00
2:35 AM,63.9,63.1,97,29.73,10.0,SE,4.6,-,0.03,Rain-Thunderstorm,Light Thunderstorms and Rain,130,2013-05-19 07:35:00
2:55 AM,63.5,62.8,97,29.73,10.0,Calm,Calm,-,0.03,,Scattered Clouds,0,2013-05-19 07:55:00
3:15 AM,63.9,63.1,97,29.72,10.0,ENE,3.5,-,N/A,,Mostly Cloudy,70,2013-05-19 08:15:00
3:35 AM,63.5,63.1,99,29.66,10.0,ESE,16.1,-,N/A,,Scattered Clouds,110,2013-05-19 08:35:00
3:55 AM,63.5,63.1,99,29.68,10.0,SE,9.2,-,N/A,,Scattered Clouds,140,2013-05-19 08:55:00
4:15 AM,62.6,62.6,100,29.65,10.0,West,3.5,-,N/A,,Clear,270,2013-05-19 09:15:00
4:35 AM,61.9,61.9,100,29.66,10.0,WSW,5.8,-,N/A,,Clear,250,2013-05-19 09:35:00
4:55 AM,62.2,62.2,100,29.67,10.0,West,5.8,-,N/A,,Clear,270,2013-05-19 09:55:00
5:15 AM,61.7,61.7,100,29.68,10.0,SSE,5.8,-,N/A,,Clear,150,2013-05-19 10:15:00
5:35 AM,61.9,61.9,100,29.69,10.0,SSE,8.1,-,N/A,,Clear,150,2013-05-19 10:35:00
5:55 AM,61.9,61.9,100,29.67,10.0,SSE,6.9,-,N/A,,Clear,160,2013-05-19 10:55:00
6:15 AM,61.7,61.7,100,29.67,5.0,SSE,6.9,-,N/A,,Scattered Clouds,160,2013-05-19 11:15:00
6:35 AM,61.7,61.7,100,29.65,5.0,SE,8.1,-,N/A,,Clear,140,2013-05-19 11:35:00
7:15 AM,63.0,62.8,99,29.66,5.0,ESE,4.6,-,N/A,,Clear,120,2013-05-19 12:15:00
7:35 AM,63.5,62.8,97,29.65,7.0,Calm,Calm,-,N/A,,Clear,0,2013-05-19 12:35:00
7:55 AM,63.9,63.3,98,29.68,10.0,Calm,Calm,-,N/A,,Clear,0,2013-05-19 12:55:00
8:15 AM,64.4,63.5,97,29.70,10.0,SSE,9.2,-,N/A,,Scattered Clouds,150,2013-05-19 13:15:00
8:35 AM,64.6,63.3,96,29.70,10.0,SE,9.2,-,N/A,,Scattered Clouds,140,2013-05-19 13:35:00
8:55 AM,64.8,62.6,93,29.69,10.0,South,4.6,-,N/A,,Scattered Clouds,170,2013-05-19 13:55:00
9:15 AM,64.4,63.0,95,29.68,10.0,ESE,8.1,-,N/A,,Clear,120,2013-05-19 14:15:00
9:55 AM,64.4,63.5,97,29.66,10.0,SE,3.5,-,0.01,,Drizzle,140,2013-05-19 14:55:00
10:15 AM,65.3,63.9,95,29.65,10.0,ENE,4.6,-,N/A,Rain-Thunderstorm,Light Thunderstorms and Rain,70,2013-05-19 15:15:00
10:35 AM,65.5,64.4,96,29.67,10.0,Calm,Calm,-,N/A,Rain,Light Rain,0,2013-05-19 15:35:00
10:55 AM,66.6,64.8,94,29.65,10.0,ENE,6.9,-,N/A,,Light Drizzle,70,2013-05-19 15:55:00
11:15 AM,67.5,65.3,93,29.67,10.0,East,10.4,-,N/A,,Mostly Cloudy,100,2013-05-19 16:15:00
11:35 AM,67.6,64.8,90,29.67,10.0,ESE,8.1,-,N/A,,Mostly Cloudy,120,2013-05-19 16:35:00
11:55 AM,67.8,64.8,90,29.68,10.0,SE,9.2,-,N/A,,Mostly Cloudy,140,2013-05-19 16:55:00
12:15 PM,67.5,64.8,91,29.67,10.0,ESE,8.1,-,N/A,,Overcast,120,2013-05-19 17:15:00
12:35 PM,68.7,65.5,89,29.66,10.0,SE,6.9,-,N/A,,Overcast,130,2013-05-19 17:35:00
12:55 PM,70.3,65.1,83,29.65,10.0,ESE,9.2,-,N/A,,Mostly Cloudy,120,2013-05-19 17:55:00
1:15 PM,70.7,64.8,81,29.65,10.0,SE,8.1,-,N/A,,Mostly Cloudy,130,2013-05-19 18:15:00
1:35 PM,70.7,64.6,81,29.65,10.0,SE,6.9,-,N/A,,Mostly Cloudy,130,2013-05-19 18:35:00
2:15 PM,72.9,65.5,78,29.65,10.0,Calm,Calm,-,N/A,,Mostly Cloudy,0,2013-05-19 19:15:00
2:35 PM,73.4,65.1,75,29.65,10.0,SSW,4.6,-,N/A,Thunderstorm,Mostly Cloudy,210,2013-05-19 19:35:00
2:55 PM,72.5,64.2,75,29.67,10.0,South,9.2,-,N/A,Thunderstorm,Thunderstorm,190,2013-05-19 19:55:00
3:15 PM,69.8,66.6,89,29.65,7.0,ESE,6.9,-,0.05,Rain-Thunderstorm,Light Thunderstorms and Rain,110,2013-05-19 20:15:00
3:35 PM,69.3,67.1,93,29.62,10.0,ENE,3.5,-,0.06,Rain-Thunderstorm,Light Thunderstorms and Rain,60,2013-05-19 20:35:00
3:55 PM,70.7,68.0,91,29.61,10.0,Calm,Calm,-,0.06,Thunderstorm,Scattered Clouds,0,2013-05-19 20:55:00
4:15 PM,72.0,69.6,92,29.61,10.0,SE,8.1,-,N/A,,Clear,130,2013-05-19 21:15:00
4:35 PM,73.4,67.6,82,29.60,10.0,East,9.2,-,N/A,,Scattered Clouds,100,2013-05-19 21:35:00
4:55 PM,72.5,66.6,82,29.58,10.0,East,6.9,-,N/A,Thunderstorm,Scattered Clouds,90,2013-05-19 21:55:00
5:15 PM,73.8,67.3,80,29.56,10.0,East,8.1,-,N/A,,Clear,90,2013-05-19 22:15:00
5:35 PM,76.1,66.2,71,29.54,10.0,East,6.9,-,N/A,Thunderstorm,Clear,100,2013-05-19 22:35:00
5:55 PM,76.1,65.5,70,29.52,10.0,East,6.9,-,N/A,,Clear,90,2013-05-19 22:55:00
6:15 PM,75.4,64.6,69,29.51,10.0,East,9.2,-,N/A,,Clear,90,2013-05-19 23:15:00
6:35 PM,73.6,62.6,68,29.53,10.0,East,10.4,-,N/A,,Clear,100,2013-05-19 23:35:00
6:55 PM,72.7,62.2,70,29.54,10.0,East,9.2,-,N/A,Thunderstorm,Clear,100,2013-05-19 23:55:00
7:15 PM,72.0,63.0,73,29.53,10.0,ESE,9.2,-,N/A,,Clear,110,2013-05-20 00:15:00
7:35 PM,71.4,64.2,78,29.53,10.0,ESE,10.4,-,N/A,,Clear,110,2013-05-20 00:35:00
7:55 PM,70.9,63.5,77,29.54,10.0,SE,12.7,-,N/A,,Clear,140,2013-05-20 00:55:00
8:15 PM,68.9,63.1,82,29.53,10.0,SSE,11.5,21.9,N/A,Thunderstorm,Clear,160,2013-05-20 01:15:00
8:35 PM,68.0,60.8,78,29.56,10.0,South,10.4,-,N/A,,Mostly Cloudy,170,2013-05-20 01:35:00
8:55 PM,62.6,56.7,81,29.65,10.0,West,25.3,41.4,N/A,,Overcast,260,2013-05-20 01:55:00
9:15 PM,60.3,56.7,88,29.63,10.0,West,13.8,17.3,0.02,Rain,Rain,280,2013-05-20 02:15:00
9:35 PM,58.5,57.7,97,29.62,7.0,WNW,6.9,-,0.07,Rain,Rain,290,2013-05-20 02:35:00
9:55 PM,58.5,58.1,99,29.61,10.0,Calm,Calm,-,0.07,Rain,Rain,0,2013-05-20 02:55:00
10:15 PM,58.8,58.1,97,29.60,10.0,Calm,Calm,-,0.01,,Overcast,0,2013-05-20 03:15:00
10:35 PM,59.2,59.0,99,29.57,7.0,East,8.1,-,0.02,Rain,Light Rain,100,2013-05-20 03:35:00
10:55 PM,59.5,59.0,98,29.55,10.0,ESE,11.5,-,0.02,,Mostly Cloudy,120,2013-05-20 03:55:00
11:15 PM,59.9,59.0,97,29.55,10.0,SE,13.8,-,N/A,,Scattered Clouds,130,2013-05-20 04:15:00
11:35 PM,59.7,58.3,95,29.55,10.0,SE,4.6,-,N/A,,Scattered Clouds,130,2013-05-20 04:35:00
11:55 PM,59.5,58.3,96,29.54,10.0,South,3.5,-,N/A,,Clear,190,2013-05-20 04:55:00